Location: Madden
(51.3728°N, 114.3297°W)
Time: 23:36:55
(UTC+00:00)

AO-91 - Pass Details

Date: 15 December 2023
Orbit: 444 x 747 km, 97.6° (Epoch: 27 February)

Event Time Altitude Azimuth Distance (km) Brightness Sun altitude
Rises 14:35:21 0° 108° (ESE) 3,163 ? -8.8°
Reaches altitude 10° 14:38:53 10° 82° (E) 2,201 ? -8.3°
Maximum altitude 14:41:02 13° 55° (NE) 1,966 ? -8.0°
Drops below altitude 10° 14:43:10 10° 28° (NNE) 2,135 ? -7.7°
Sets 14:46:29 0° 1° (N) 2,986 ? -7.3°
